Date String (YYYY-MM-DD hh:mm:ss) UTC,Instrument flags,Ambient pressure (hPa),Sample flow (lpm),Bypass flow (lpm),Sample temperature (°C),Ambient temperature (°C),ASC tube jacket temperature (°C),LED temperature (°C),Box temperature (°C),Sample RH (%),Span deviation,Mass concentration (μg/m³),Mass concentration (μg/m³),Mass concentration (μg/m³)
DateTimeUTC,F1_M11,P_M11,Q1_M11,Q2_M11,T1_M11,T2_M11,T3_M11,T4_M11,T5_M11,U1_M11,ZSPAN_M11,X0_M11,X2_M11,X1_M11
2022-06-07 03:00:00,,0823.1,4.99,0.00,29.6,27.3,00.0,38.5,31.2,22.6,0000.0,0007.60,0002.68,0001.10
2022-06-07 03:01:00,,0823.1,5.01,0.00,29.5,27.3,00.0,38.5,31.2,23.0,0000.0,0007.70,0002.75,0001.11
2022-06-07 03:02:00,,0823.1,4.99,0.00,29.5,27.4,00.0,38.4,31.2,23.9,0000.0,0008.02,0002.76,0001.12
2022-06-07 03:03:00,,0823.2,5.01,0.00,29.5,27.6,00.0,38.4,31.2,23.2,0000.0,0007.98,0002.73,0001.13
2022-06-07 03:04:00,,0823.2,4.99,0.00,29.5,27.7,00.0,38.4,31.3,23.2,0000.0,0007.86,0002.68,0001.13
2022-06-07 03:05:00,,0823.1,5.01,0.00,29.5,27.9,00.0,38.4,31.3,23.3,0000.0,0007.24,0002.60,0001.13
2022-06-07 03:06:00,,0823.1,5.01,0.00,29.5,28.0,00.0,38.4,31.3,22.3,0000.0,0006.87,0002.55,0001.11
2022-06-07 03:07:00,,0823.1,4.99,0.00,29.5,28.1,00.0,38.4,31.3,21.8,0000.0,0007.55,0002.49,0001.10
2022-06-07 03:08:00,,0823.1,5.00,0.00,29.5,28.2,00.0,38.4,31.4,21.8,0000.0,0007.68,0002.47,0001.08
2022-06-07 03:09:00,,0823.2,5.01,0.00,29.5,28.3,00.0,38.4,31.4,21.7,0000.0,0008.08,0002.43,0001.06
2022-06-07 03:10:00,,0823.2,5.00,0.00,29.5,28.3,00.0,38.4,31.4,21.6,0000.0,0008.40,0002.36,0001.04
2022-06-07 03:11:00,,0823.2,5.01,0.00,29.5,28.4,00.0,38.4,31.5,21.5,0000.0,0008.73,0002.30,0001.02
2022-06-07 03:12:00,,0823.2,4.99,0.00,29.5,28.5,00.0,38.4,31.5,21.6,0000.0,0008.65,0002.23,0001.02
2022-06-07 03:13:00,,0823.1,5.00,0.00,29.6,28.5,00.0,38.4,31.5,21.5,0000.0,0008.51,0002.27,0001.00
2022-06-07 03:14:00,,0823.1,5.01,0.00,29.6,28.5,00.0,38.4,31.5,21.6,0000.0,0008.56,0002.28,0000.98
2022-06-07 03:15:00,,0823.1,5.01,0.00,29.6,28.6,00.0,38.4,31.5,21.4,0000.0,0008.78,0002.28,0000.98
2022-06-07 03:16:00,,0823.1,5.00,0.00,29.6,28.6,00.0,38.4,31.5,21.3,0000.0,0009.08,0002.37,0000.97
2022-06-07 03:17:00,,0823.0,5.00,0.00,29.6,28.6,00.0,38.5,31.6,21.2,0000.0,0009.06,0002.37,0000.98
2022-06-07 03:18:00,,0823.0,4.99,0.00,29.7,28.7,00.0,38.5,31.6,21.1,0000.0,0009.13,0002.44,0000.98
2022-06-07 03:19:00,,0823.0,4.99,0.00,29.7,28.7,00.0,38.5,31.6,21.2,0000.0,0009.74,0002.50,0000.99
2022-06-07 03:20:00,,0823.1,5.00,0.00,29.7,28.7,00.0,38.5,31.6,21.2,0000.0,0009.70,0002.56,0001.00
2022-06-07 03:21:00,,0823.0,4.99,0.00,29.7,28.8,00.0,38.5,31.6,21.2,0000.0,0009.47,0002.55,0001.01
2022-06-07 03:22:00,,0823.1,5.00,0.00,29.7,28.8,00.0,38.5,31.7,21.1,0000.0,0008.95,0002.56,0001.02
2022-06-07 03:23:00,,0823.1,5.00,0.00,29.7,28.8,00.0,38.5,31.7,21.0,0000.0,0009.29,0002.56,0001.02
2022-06-07 03:24:00,,0823.1,5.01,0.00,29.8,28.8,00.0,38.6,31.7,21.0,0000.0,0009.38,0002.49,0001.03
2022-06-07 03:25:00,,0823.2,5.01,0.00,29.8,28.8,00.0,38.6,31.7,20.8,0000.0,0009.24,0002.50,0001.04
2022-06-07 03:26:00,,0823.3,5.00,0.00,29.8,28.9,00.0,38.6,31.7,20.5,0000.0,0009.04,0002.54,0001.05
2022-06-07 03:27:00,,0823.2,5.00,0.00,29.8,28.9,00.0,38.6,31.8,20.4,0000.0,0008.70,0002.52,0001.06
2022-06-07 03:28:00,,0823.2,5.00,0.00,29.8,28.9,00.0,38.6,31.7,20.2,0000.0,0008.67,0002.50,0001.05
2022-06-07 03:29:00,,0823.2,4.99,0.00,29.8,28.9,00.0,38.7,31.8,20.1,0000.0,0008.31,0002.53,0001.04
2022-06-07 03:30:00,,0823.2,4.99,0.00,29.9,28.9,00.0,38.7,31.8,20.1,0000.0,0007.51,0002.45,0001.01
2022-06-07 03:31:00,,0823.3,5.00,0.00,29.9,28.9,00.0,38.7,31.8,19.8,0000.0,0006.80,0002.33,0000.98
2022-06-07 03:32:00,,0823.3,5.01,0.00,29.9,28.9,00.0,38.7,31.8,19.7,0000.0,0006.64,0002.39,0000.98
2022-06-07 03:33:00,,0823.3,5.00,0.00,29.9,29.0,00.0,38.7,31.8,19.7,0000.0,0006.70,0002.37,0000.96
2022-06-07 03:34:00,,0823.3,5.00,0.00,29.9,28.9,00.0,38.7,31.8,19.8,0000.0,0005.66,0002.30,0000.94
2022-06-07 03:35:00,,0823.3,5.01,0.00,29.9,28.2,00.0,38.6,31.6,21.8,0000.0,0005.25,0002.31,0000.94
2022-06-07 03:36:00,,0823.4,4.99,0.00,29.8,27.5,00.0,38.6,31.4,21.9,0000.0,0005.54,0002.27,0000.94
2022-06-07 03:37:00,,0823.4,5.01,0.00,29.7,27.3,00.0,38.6,31.3,22.0,0000.0,0005.52,0002.27,0000.97
2022-06-07 03:38:00,,0823.3,4.99,0.00,29.6,27.3,00.0,38.5,31.2,21.5,0000.0,0005.63,0002.27,0000.96
2022-06-07 03:39:00,,0823.3,5.01,0.00,29.5,27.4,00.0,38.5,31.2,21.3,0000.0,0006.07,0002.37,0000.98
2022-06-07 03:40:00,,0823.4,4.99,0.00,29.5,27.5,00.0,38.5,31.3,21.6,0000.0,0005.98,0002.33,0000.99
2022-06-07 03:41:00,,0823.3,5.01,0.00,29.5,27.6,00.0,38.5,31.3,21.4,0000.0,0006.06,0002.38,0001.02
2022-06-07 03:42:00,,0823.3,5.00,0.00,29.5,27.8,00.0,38.5,31.3,21.1,0000.0,0006.18,0002.46,0001.06
2022-06-07 03:43:00,,0823.3,4.98,0.00,29.5,27.9,00.0,38.5,31.3,20.7,0000.0,0006.36,0002.50,0001.06
2022-06-07 03:44:00,,0823.3,5.00,0.00,29.5,28.0,00.0,38.4,31.3,20.2,0000.0,0007.38,0002.58,0001.07
2022-06-07 03:45:00,,0823.3,5.01,0.00,29.5,28.1,00.0,38.4,31.4,20.0,0000.0,0007.42,0002.64,0001.08
2022-06-07 03:46:00,,0823.3,5.00,0.00,29.5,28.2,00.0,38.4,31.4,19.9,0000.0,0007.32,0002.59,0001.08
2022-06-07 03:47:00,,0823.3,5.00,0.00,29.5,28.3,00.0,38.4,31.4,19.9,0000.0,0006.88,0002.55,0001.06
2022-06-07 03:48:00,,0823.3,5.00,0.00,29.5,28.4,00.0,38.4,31.4,19.9,0000.0,0007.31,0002.46,0001.02
2022-06-07 03:49:00,,0823.3,5.00,0.00,29.5,28.4,00.0,38.4,31.4,20.0,0000.0,0007.23,0002.46,0001.00
2022-06-07 03:50:00,,0823.4,5.01,0.00,29.6,28.5,00.0,38.4,31.5,19.9,0000.0,0006.81,0002.38,0001.01
2022-06-07 03:51:00,,0823.3,5.01,0.00,29.6,28.5,00.0,38.5,31.5,20.1,0000.0,0006.61,0002.32,0001.00
2022-06-07 03:52:00,,0823.3,4.99,0.00,29.6,28.6,00.0,38.5,31.5,20.3,0000.0,0006.53,0002.24,0000.99
2022-06-07 03:53:00,,0823.4,4.99,0.00,29.6,28.6,00.0,38.5,31.5,20.5,0000.0,0006.79,0002.23,0000.98
2022-06-07 03:54:00,,0823.4,5.01,0.00,29.6,28.7,00.0,38.5,31.6,20.2,0000.0,0006.65,0002.16,0000.97
2022-06-07 03:55:00,,0823.4,5.00,0.00,29.7,28.7,00.0,38.5,31.6,20.1,0000.0,0005.51,0002.06,0000.96
2022-06-07 03:56:00,,0823.5,5.00,0.00,29.7,28.7,00.0,38.5,31.6,20.0,0000.0,0005.61,0002.03,0000.97
2022-06-07 03:57:00,,0823.6,4.98,0.00,29.7,28.7,00.0,38.5,31.6,20.2,0000.0,0006.44,0002.06,0000.98
2022-06-07 03:58:00,,0823.6,5.00,0.00,29.7,28.8,00.0,38.5,31.6,20.7,0000.0,0006.28,0002.08,0001.00
2022-06-07 03:59:00,,0823.6,5.01,0.00,29.7,28.8,00.0,38.6,31.7,20.6,0000.0,0006.38,0002.16,0001.03
